GEOSCAN 5 (RS92S5)

Last updated on Mon Sep 15 2025 00:03:10 GMT+0000 (Coordinated Universal Time)

1 64891U 25155R 25257.16913528 .00009783 00000+0 41303-3 0 9992 2 64891 97.4200 221.7711 0010123 84.1360 276.1030 15.23427919 38656
UTC large
Height (km)
Speed (km/s)
/
Latitude / Longitude
Inclination (degrees)
Orbital Period (minutes)
Azimuth
Elevation
Range (km)
Doppler Factor

Next 0 passes for location: London (51.5072 / 0.1276)

Sorry there are no passes over London.